owner,sensor,date,latitude,longitude,vertical_datum,wind_speed,wind_to_direction,wind_speed_of_gust,qcFlag 
TABS,ioos:station:wmo:42046:1,2011-08-01T00:00:00Z,27.8903,-94.0367,4.0,2.307032726,85.52469304,3.0,'11111222,11111222,11111222' 
TABS,ioos:station:wmo:42046:1,2011-08-01T00:30:00Z,27.8903,-94.0367,4.0,2.13,90.00042092,3.09,'11111222,11111222,11111222' 
TABS,ioos:station:wmo:42046:1,2011-08-01T01:00:00Z,27.8903,-94.0367,4.0,2.814000711,64.9827441,3.53,'11111222,11111222,11111222' 
TABS,ioos:station:wmo:42046:1,2011-08-01T01:30:00Z,27.8903,-94.0367,4.0,2.892818695,73.94539696,3.57,'11111222,11111222,11111222' 
TABS,ioos:station:wmo:42046:1,2011-08-01T02:00:00Z,27.8903,-94.0367,4.0,2.988728827,70.65529505,3.94,'11111222,11111222,11111222' 
TABS,ioos:station:wmo:42046:1,2011-08-01T02:30:00Z,27.8903,-94.0367,4.0,2.616199534,86.05440208,3.23,'11111222,11111222,11111222' 
TABS,ioos:station:wmo:42046:1,2011-08-01T03:00:00Z,27.8903,-94.0367,4.0,2.031846451,69.2455563,2.7,'11111222,11111222,11111222' 
TABS,ioos:station:wmo:42046:1,2011-08-01T03:30:00Z,27.8903,-94.0367,4.0,2.41611258,107.8353942,3.46,'11111222,11111222,11111222' 
TABS,ioos:station:wmo:42046:1,2011-08-01T04:00:00Z,27.8903,-94.0367,4.0,2.800714195,101.9522681,3.57,'11111222,11111222,11111222' 
TABS,ioos:station:wmo:42046:1,2011-08-01T04:30:00Z,27.8903,-94.0367,4.0,2.778380823,121.4592403,3.59,'11111222,11111222,11111222' 
TABS,ioos:station:wmo:42046:1,2011-08-01T05:00:00Z,27.8903,-94.0367,4.0,2.758296576,133.8251852,3.8,'11111222,11111222,11111222' 
TABS,ioos:station:wmo:42046:1,2011-08-01T05:30:00Z,27.8903,-94.0367,4.0,2.696163942,124.5745315,3.53,'11111222,11111222,11111222' 
TABS,ioos:station:wmo:42046:1,2011-08-01T06:00:00Z,27.8903,-94.0367,4.0,2.890121105,123.1405643,3.89,'11111222,11111222,11111222' 
TABS,ioos:station:wmo:42046:1,2011-08-01T06:30:00Z,27.8903,-94.0367,4.0,2.823915721,145.2409772,3.49,'11111222,11111222,11111222' 
TABS,ioos:station:wmo:42046:1,2011-08-01T07:00:00Z,27.8903,-94.0367,4.0,2.721506936,131.126835,3.6,'11111222,11111222,11111222' 
TABS,ioos:station:wmo:42046:1,2011-08-01T07:30:00Z,27.8903,-94.0367,4.0,2.93429719,159.0328436,3.63,'11111222,11111222,11111222' 
TABS,ioos:station:wmo:42046:1,2011-08-01T08:00:00Z,27.8903,-94.0367,4.0,2.267421443,149.8166004,3.02,'11111222,11111222,11111222' 
TABS,ioos:station:wmo:42046:1,2011-08-01T08:30:00Z,27.8903,-94.0367,4.0,2.637347152,161.4279054,3.38,'11111222,11111222,11111222' 
TABS,ioos:station:wmo:42046:1,2011-08-01T09:00:00Z,27.8903,-94.0367,4.0,2.860244745,167.2758845,3.84,'11111222,11111222,11111222' 
TABS,ioos:station:wmo:42046:1,2011-08-01T09:30:00Z,27.8903,-94.0367,4.0,2.401603631,156.9583049,3.64,'11111222,11111222,11111222' 
TABS,ioos:station:wmo:42046:1,2011-08-01T10:00:00Z,27.8903,-94.0367,4.0,2.018365675,151.2765406,3.07,'11111222,11111222,11111222' 
TABS,ioos:station:wmo:42046:1,2011-08-01T10:30:00Z,27.8903,-94.0367,4.0,2.2407588,152.6347355,3.14,'11111222,11111222,11111222' 
TABS,ioos:station:wmo:42046:1,2011-08-01T11:00:00Z,27.8903,-94.0367,4.0,1.527383383,174.3642829,2.09,'11111222,11111222,11111222' 
TABS,ioos:station:wmo:42046:1,2011-08-01T11:30:00Z,27.8903,-94.0367,4.0,1.320340865,181.3021601,1.85,'11111222,11111222,11111222' 
TABS,ioos:station:wmo:42046:1,2011-08-01T12:00:00Z,27.8903,-94.0367,4.0,1.204159458,168.5036743,1.63,'11111222,11111222,11111222' 
TABS,ioos:station:wmo:42046:1,2011-08-01T12:30:00Z,27.8903,-94.0367,4.0,0.30528675,238.3925717,0.92,'11111222,11111222,11111222' 
TABS,ioos:station:wmo:42046:1,2011-08-01T13:00:00Z,27.8903,-94.0367,4.0,0.831685037,251.7829474,1.43,'11111222,11111222,11111222' 
TABS,ioos:station:wmo:42046:1,2011-08-01T13:30:00Z,27.8903,-94.0367,4.0,1.105350623,241.3482385,1.8,'11111222,11111222,11111222' 
TABS,ioos:station:wmo:42046:1,2011-08-01T14:00:00Z,27.8903,-94.0367,4.0,1.190378091,238.0457118,1.87,'11111222,11111222,11111222' 
TABS,ioos:station:wmo:42046:1,2011-08-01T14:30:00Z,27.8903,-94.0367,4.0,1.370583817,262.8750003,2.04,'11111222,11111222,11111222' 
TABS,ioos:station:wmo:42046:1,2011-08-01T15:00:00Z,27.8903,-94.0367,4.0,1.196411301,286.01114,1.87,'11111222,11111222,11111222' 
TABS,ioos:station:wmo:42046:1,2011-08-01T15:30:00Z,27.8903,-94.0367,4.0,0.572450871,289.3844704,1.17,'11111222,11111222,11111222' 
TABS,ioos:station:wmo:42046:1,2011-08-01T16:00:00Z,27.8903,-94.0367,4.0,1.017889974,303.377754,1.71,'11111222,11111222,11111222' 
TABS,ioos:station:wmo:42046:1,2011-08-01T16:30:00Z,27.8903,-94.0367,4.0,1.696142683,301.2533462,2.55,'11111222,11111222,11111222' 
TABS,ioos:station:wmo:42046:1,2011-08-01T17:00:00Z,27.8903,-94.0367,4.0,1.133225485,285.8759094,1.91,'11111222,11111222,11111222' 
TABS,ioos:station:wmo:42046:1,2011-08-01T17:30:00Z,27.8903,-94.0367,4.0,2.114639449,308.2788809,3.02,'11111222,11111222,11111222' 
TABS,ioos:station:wmo:42046:1,2011-08-01T18:00:00Z,27.8903,-94.0367,4.0,1.959413177,298.0036184,2.73,'11111222,11111222,11111222' 
TABS,ioos:station:wmo:42046:1,2011-08-01T18:30:00Z,27.8903,-94.0367,4.0,1.800999722,299.9815693,2.69,'11111222,11111222,11111222' 
TABS,ioos:station:wmo:42046:1,2011-08-01T19:00:00Z,27.8903,-94.0367,4.0,2.303844613,310.9518749,3.37,'11111222,11111222,11111222' 
TABS,ioos:station:wmo:42046:1,2011-08-01T19:30:00Z,27.8903,-94.0367,4.0,1.76663522,332.7095779,2.79,'11111222,11111222,11111222' 
TABS,ioos:station:wmo:42046:1,2011-08-01T20:00:00Z,27.8903,-94.0367,4.0,1.126099463,318.2395875,1.93,'11111222,11111222,11111222' 
TABS,ioos:station:wmo:42046:1,2011-08-01T20:30:00Z,27.8903,-94.0367,4.0,1.527416119,351.3392061,2.6,'11111222,11111222,11111222' 
TABS,ioos:station:wmo:42046:1,2011-08-01T21:00:00Z,27.8903,-94.0367,4.0,1.333304166,335.1646801,1.97,'11111222,11111222,11111222' 
TABS,ioos:station:wmo:42046:1,2011-08-01T21:30:00Z,27.8903,-94.0367,4.0,1.120044642,23.13115626,1.73,'11111222,11111222,11111222' 
TABS,ioos:station:wmo:42046:1,2011-08-01T22:00:00Z,27.8903,-94.0367,4.0,0.74,71.07497892,1.55,'11111222,11111222,11111222' 
TABS,ioos:station:wmo:42046:1,2011-08-01T22:30:00Z,27.8903,-94.0367,4.0,0.904267659,32.81107961,1.57,'11111222,11111222,11111222' 
TABS,ioos:station:wmo:42046:1,2011-08-01T23:00:00Z,27.8903,-94.0367,4.0,0.79246451,42.95428061,1.49,'11111222,11111222,11111222' 
TABS,ioos:station:wmo:42046:1,2011-08-01T23:30:00Z,27.8903,-94.0367,4.0,1.492715646,70.83637812,2.46,'11111222,11111222,11111222' 
TABS,ioos:station:wmo:42046:1,2011-08-02T00:00:00Z,27.8903,-94.0367,4.0,1.25015999,90.91707303,2.08,'11111222,11111222,11111222' 
TABS,ioos:station:wmo:42046:1,2011-08-02T00:30:00Z,27.8903,-94.0367,4.0,0.945780101,70.22354873,1.57,'11111222,11111222,11111222' 
TABS,ioos:station:wmo:42046:1,2011-08-02T01:00:00Z,27.8903,-94.0367,4.0,0.399249296,112.0682689,0.84,'11111222,11111222,11111222' 
TABS,ioos:station:wmo:42046:1,2011-08-02T01:30:00Z,27.8903,-94.0367,4.0,1.483543056,149.6326445,2.06,'11111222,11111222,11111222' 
TABS,ioos:station:wmo:42046:1,2011-08-02T02:00:00Z,27.8903,-94.0367,4.0,1.916037578,143.4892397,2.75,'11111222,11111222,11111222' 
TABS,ioos:station:wmo:42046:1,2011-08-02T02:30:00Z,27.8903,-94.0367,4.0,3.405950675,160.9801328,4.54,'11111222,11111222,11111222' 
TABS,ioos:station:wmo:42046:1,2011-08-02T03:00:00Z,27.8903,-94.0367,4.0,4.093531483,155.0002868,4.94,'11111222,11111222,11111222' 
TABS,ioos:station:wmo:42046:1,2011-08-02T03:30:00Z,27.8903,-94.0367,4.0,3.817970665,162.9416545,4.55,'11111222,11111222,11111222' 
TABS,ioos:station:wmo:42046:1,2011-08-02T04:00:00Z,27.8903,-94.0367,4.0,4.336011993,171.6458792,5.17,'11111222,11111222,11111222' 
TABS,ioos:station:wmo:42046:1,2011-08-02T04:30:00Z,27.8903,-94.0367,4.0,4.344156995,177.4934764,5.03,'11111222,11111222,11111222' 
TABS,ioos:station:wmo:42046:1,2011-08-02T05:00:00Z,27.8903,-94.0367,4.0,4.987955493,172.0488201,5.84,'11111222,11111222,11111222' 
TABS,ioos:station:wmo:42046:1,2011-08-02T05:30:00Z,27.8903,-94.0367,4.0,4.751273513,181.3268199,5.66,'11111222,11111222,11111222' 
TABS,ioos:station:wmo:42046:1,2011-08-02T06:00:00Z,27.8903,-94.0367,4.0,4.585564306,172.8597129,5.51,'11111222,11111222,11111222' 
TABS,ioos:station:wmo:42046:1,2011-08-02T06:30:00Z,27.8903,-94.0367,4.0,4.433057636,184.3989055,5.32,'11111222,11111222,11111222' 
TABS,ioos:station:wmo:42046:1,2011-08-02T07:00:00Z,27.8903,-94.0367,4.0,4.035170381,186.4031084,4.85,'11111222,11111222,11111222' 
TABS,ioos:station:wmo:42046:1,2011-08-02T07:30:00Z,27.8903,-94.0367,4.0,4.194627516,184.7865279,5.62,'11111222,11111222,11111222' 
TABS,ioos:station:wmo:42046:1,2011-08-02T08:00:00Z,27.8903,-94.0367,4.0,4.484963768,188.9794575,5.55,'11111222,11111222,11111222' 
TABS,ioos:station:wmo:42046:1,2011-08-02T08:30:00Z,27.8903,-94.0367,4.0,4.683513638,198.938036,6.02,'11111222,11111222,11111222' 
TABS,ioos:station:wmo:42046:1,2011-08-02T09:00:00Z,27.8903,-94.0367,4.0,4.443422105,203.3341972,5.38,'11111222,11111222,11111222' 
TABS,ioos:station:wmo:42046:1,2011-08-02T09:30:00Z,27.8903,-94.0367,4.0,4.566333321,201.4520675,5.67,'11111222,11111222,11111222' 
TABS,ioos:station:wmo:42046:1,2011-08-02T10:00:00Z,27.8903,-94.0367,4.0,5.02871753,204.9344473,6.06,'11111222,11111222,11111222' 
TABS,ioos:station:wmo:42046:1,2011-08-02T10:30:00Z,27.8903,-94.0367,4.0,4.83011387,206.0346994,5.9,'11111222,11111222,11111222' 
TABS,ioos:station:wmo:42046:1,2011-08-02T11:00:00Z,27.8903,-94.0367,4.0,4.806766065,198.0581766,5.53,'11111222,11111222,11111222' 
TABS,ioos:station:wmo:42046:1,2011-08-02T11:30:00Z,27.8903,-94.0367,4.0,3.993219253,196.4382955,5.06,'11111222,11111222,11111222' 
TABS,ioos:station:wmo:42046:1,2011-08-02T12:00:00Z,27.8903,-94.0367,4.0,3.396292096,198.5418119,4.3,'11111222,11111222,11111222' 
TABS,ioos:station:wmo:42046:1,2011-08-02T12:30:00Z,27.8903,-94.0367,4.0,4.195485669,192.2475492,4.94,'11111222,11111222,11111222' 
TABS,ioos:station:wmo:42046:1,2011-08-02T13:00:00Z,27.8903,-94.0367,4.0,4.261748467,202.0512216,4.95,'11111222,11111222,11111222' 
TABS,ioos:station:wmo:42046:1,2011-08-02T13:30:00Z,27.8903,-94.0367,4.0,3.753731477,215.1296981,4.43,'11111222,11111222,11111222' 
TABS,ioos:station:wmo:42046:1,2011-08-02T14:00:00Z,27.8903,-94.0367,4.0,4.05123438,209.0959566,4.86,'11111222,11111222,11111222' 
TABS,ioos:station:wmo:42046:1,2011-08-02T14:30:00Z,27.8903,-94.0367,4.0,4.756816162,214.2915308,5.54,'11111222,11111222,11111222' 
TABS,ioos:station:wmo:42046:1,2011-08-02T15:00:00Z,27.8903,-94.0367,4.0,3.67049043,240.9909486,4.77,'11111222,11111222,11111222' 
TABS,ioos:station:wmo:42046:1,2011-08-02T15:30:00Z,27.8903,-94.0367,4.0,3.740975809,251.6135268,4.55,'11111222,11111222,11111222' 
TABS,ioos:station:wmo:42046:1,2011-08-02T16:00:00Z,27.8903,-94.0367,4.0,3.809908135,261.6997742,4.59,'11111222,11111222,11111222' 
TABS,ioos:station:wmo:42046:1,2011-08-02T16:30:00Z,27.8903,-94.0367,4.0,3.757366099,255.0391497,4.38,'11111222,11111222,11111222' 
TABS,ioos:station:wmo:42046:1,2011-08-02T17:00:00Z,27.8903,-94.0367,4.0,3.66938687,247.9086862,4.76,'11111222,11111222,11111222' 
TABS,ioos:station:wmo:42046:1,2011-08-02T17:30:00Z,27.8903,-94.0367,4.0,2.714258646,258.5245001,3.45,'11111222,11111222,11111222' 
TABS,ioos:station:wmo:42046:1,2011-08-02T18:00:00Z,27.8903,-94.0367,4.0,3.040263147,237.3554362,3.86,'11111222,11111222,11111222' 
TABS,ioos:station:wmo:42046:1,2011-08-02T18:30:00Z,27.8903,-94.0367,4.0,2.892334697,234.0018393,3.71,'11111222,11111222,11111222' 
TABS,ioos:station:wmo:42046:1,2011-08-02T19:00:00Z,27.8903,-94.0367,4.0,2.712213118,233.8484592,3.56,'11111222,11111222,11111222' 
TABS,ioos:station:wmo:42046:1,2011-08-02T19:30:00Z,27.8903,-94.0367,4.0,2.448836458,231.6326043,3.29,'11111222,11111222,11111222' 
TABS,ioos:station:wmo:42046:1,2011-08-02T20:00:00Z,27.8903,-94.0367,4.0,2.137147632,239.9559102,3.15,'11111222,11111222,11111222' 
TABS,ioos:station:wmo:42046:1,2011-08-02T20:30:00Z,27.8903,-94.0367,4.0,2.17368351,242.6098221,3.0,'11111222,11111222,11111222' 
TABS,ioos:station:wmo:42046:1,2011-08-02T21:00:00Z,27.8903,-94.0367,4.0,1.732541486,248.3214616,2.47,'11111222,11111222,11111222' 
TABS,ioos:station:wmo:42046:1,2011-08-02T21:30:00Z,27.8903,-94.0367,4.0,1.836572895,254.5260235,2.61,'11111222,11111222,11111222' 
TABS,ioos:station:wmo:42046:1,2011-08-02T22:00:00Z,27.8903,-94.0367,4.0,1.525942332,241.4195736,2.7,'11111222,11111222,11111222' 
TABS,ioos:station:wmo:42046:1,2011-08-02T22:30:00Z,27.8903,-94.0367,4.0,1.606393476,227.2705496,2.39,'11111222,11111222,11111222' 
TABS,ioos:station:wmo:42046:1,2011-08-02T23:00:00Z,27.8903,-94.0367,4.0,1.216552506,242.5924887,2.11,'11111222,11111222,11111222' 
TABS,ioos:station:wmo:42046:1,2011-08-02T23:30:00Z,27.8903,-94.0367,4.0,0.82097503,214.0773261,1.38,'11111222,11111222,11111222' 
TABS,ioos:station:wmo:42046:1,2011-08-03T00:00:00Z,27.8903,-94.0367,4.0,1.996121239,219.5116788,2.64,'11111222,11111222,11111222' 
TABS,ioos:station:wmo:42046:1,2011-08-03T00:30:00Z,27.8903,-94.0367,4.0,1.406022759,185.3053077,1.94,'11111222,11111222,11111222' 
TABS,ioos:station:wmo:42046:1,2011-08-03T01:00:00Z,27.8903,-94.0367,4.0,1.928989373,208.8239497,2.53,'11111222,11111222,11111222' 
TABS,ioos:station:wmo:42046:1,2011-08-03T01:30:00Z,27.8903,-94.0367,4.0,2.4060133,184.0518848,3.32,'11111222,11111222,11111222' 
TABS,ioos:station:wmo:42046:1,2011-08-03T02:00:00Z,27.8903,-94.0367,4.0,2.589362856,184.8740955,3.76,'11111222,11111222,11111222' 
TABS,ioos:station:wmo:42046:1,2011-08-03T02:30:00Z,27.8903,-94.0367,4.0,2.110023697,179.7286691,3.17,'11111222,11111222,11111222' 
TABS,ioos:station:wmo:42046:1,2011-08-03T03:00:00Z,27.8903,-94.0367,4.0,2.480987707,181.616997,3.27,'11111222,11111222,11111222' 
TABS,ioos:station:wmo:42046:1,2011-08-03T03:30:00Z,27.8903,-94.0367,4.0,3.073190525,177.3891887,4.02,'11111222,11111222,11111222' 
TABS,ioos:station:wmo:42046:1,2011-08-03T04:00:00Z,27.8903,-94.0367,4.0,3.511723224,181.795213,4.23,'11111222,11111222,11111222' 
TABS,ioos:station:wmo:42046:1,2011-08-03T04:30:00Z,27.8903,-94.0367,4.0,4.532824726,182.0230568,5.38,'11111222,11111222,11111222' 
TABS,ioos:station:wmo:42046:1,2011-08-03T05:00:00Z,27.8903,-94.0367,4.0,4.750042105,179.7589671,5.81,'11111222,11111222,11111222' 
TABS,ioos:station:wmo:42046:1,2011-08-03T05:30:00Z,27.8903,-94.0367,4.0,4.846534845,184.7343881,6.01,'11111222,11111222,11111222' 
TABS,ioos:station:wmo:42046:1,2011-08-03T06:00:00Z,27.8903,-94.0367,4.0,4.630561521,190.7034508,5.44,'11111222,11111222,11111222' 
TABS,ioos:station:wmo:42046:1,2011-08-03T06:30:00Z,27.8903,-94.0367,4.0,4.348022539,190.8707809,5.32,'11111222,11111222,11111222' 
TABS,ioos:station:wmo:42046:1,2011-08-03T07:00:00Z,27.8903,-94.0367,4.0,5.015665459,193.8424811,5.98,'11111222,11111222,11111222' 
TABS,ioos:station:wmo:42046:1,2011-08-03T07:30:00Z,27.8903,-94.0367,4.0,4.982930864,192.7534809,6.04,'11111222,11111222,11111222' 
TABS,ioos:station:wmo:42046:1,2011-08-03T08:00:00Z,27.8903,-94.0367,4.0,5.194497088,200.039812,6.08,'11111222,11111222,11111222' 
TABS,ioos:station:wmo:42046:1,2011-08-03T08:30:00Z,27.8903,-94.0367,4.0,5.498308831,194.213337,6.51,'11111222,11111222,11111222' 
TABS,ioos:station:wmo:42046:1,2011-08-03T09:00:00Z,27.8903,-94.0367,4.0,6.185539588,201.6295621,7.01,'11111222,11111222,11111222' 
TABS,ioos:station:wmo:42046:1,2011-08-03T09:30:00Z,27.8903,-94.0367,4.0,5.880144556,204.5166852,7.14,'11111222,11111222,11111222' 
TABS,ioos:station:wmo:42046:1,2011-08-03T10:00:00Z,27.8903,-94.0367,4.0,5.406902995,206.2334666,6.39,'11111222,11111222,11111222' 
TABS,ioos:station:wmo:42046:1,2011-08-03T10:30:00Z,27.8903,-94.0367,4.0,5.237146169,207.1523248,5.92,'11111222,11111222,11111222' 
TABS,ioos:station:wmo:42046:1,2011-08-03T11:00:00Z,27.8903,-94.0367,4.0,4.862314264,211.6307979,5.81,'11111222,11111222,11111222' 
TABS,ioos:station:wmo:42046:1,2011-08-03T11:30:00Z,27.8903,-94.0367,4.0,4.835411048,220.8070464,5.9,'11111222,11111222,11111222' 
TABS,ioos:station:wmo:42046:1,2011-08-03T12:00:00Z,27.8903,-94.0367,4.0,4.912026059,217.056652,6.04,'11111222,11111222,11111222' 
TABS,ioos:station:wmo:42046:1,2011-08-03T12:30:00Z,27.8903,-94.0367,4.0,3.978190543,227.6489048,5.04,'11111222,11111222,11111222' 
TABS,ioos:station:wmo:42046:1,2011-08-03T13:00:00Z,27.8903,-94.0367,4.0,4.72958772,222.0863742,5.4,'11111222,11111222,11111222' 
TABS,ioos:station:wmo:42046:1,2011-08-03T13:30:00Z,27.8903,-94.0367,4.0,4.239587244,234.6980592,5.02,'11111222,11111222,11111222' 
TABS,ioos:station:wmo:42046:1,2011-08-03T14:00:00Z,27.8903,-94.0367,4.0,3.505837988,235.8114067,4.29,'11111222,11111222,11111222' 
TABS,ioos:station:wmo:42046:1,2011-08-03T14:30:00Z,27.8903,-94.0367,4.0,3.678505131,230.2942359,4.49,'11111222,11111222,11111222' 
TABS,ioos:station:wmo:42046:1,2011-08-03T15:00:00Z,27.8903,-94.0367,4.0,3.581131106,231.6900986,4.14,'11111222,11111222,11111222' 
TABS,ioos:station:wmo:42046:1,2011-08-03T15:30:00Z,27.8903,-94.0367,4.0,3.438168117,232.5635834,4.26,'11111222,11111222,11111222' 
TABS,ioos:station:wmo:42046:1,2011-08-03T16:00:00Z,27.8903,-94.0367,4.0,3.434559652,240.5241799,4.21,'11111222,11111222,11111222' 
TABS,ioos:station:wmo:42046:1,2011-08-03T16:30:00Z,27.8903,-94.0367,4.0,2.957025533,246.9032321,3.75,'11111222,11111222,11111222' 
TABS,ioos:station:wmo:42046:1,2011-08-03T17:00:00Z,27.8903,-94.0367,4.0,3.103369137,253.1416407,3.88,'11111222,11111222,11111222' 
TABS,ioos:station:wmo:42046:1,2011-08-03T17:30:00Z,27.8903,-94.0367,4.0,2.810071173,241.5197874,3.53,'11111222,11111222,11111222' 
TABS,ioos:station:wmo:42046:1,2011-08-03T18:00:00Z,27.8903,-94.0367,4.0,3.127427058,249.0151512,3.85,'11111222,11111222,11111222' 
TABS,ioos:station:wmo:42046:1,2011-08-03T18:30:00Z,27.8903,-94.0367,4.0,2.558945095,256.6697663,3.21,'11111222,11111222,11111222' 
TABS,ioos:station:wmo:42046:1,2011-08-03T19:00:00Z,27.8903,-94.0367,4.0,2.508625121,234.4093046,3.18,'11111222,11111222,11111222' 
TABS,ioos:station:wmo:42046:1,2011-08-03T19:30:00Z,27.8903,-94.0367,4.0,1.812456896,245.5561024,3.03,'11111222,11111222,11111222' 
TABS,ioos:station:wmo:42046:1,2011-08-03T20:00:00Z,27.8903,-94.0367,4.0,1.670838113,263.4704793,2.24,'11111222,11111222,11111222' 
TABS,ioos:station:wmo:42046:1,2011-08-03T20:30:00Z,27.8903,-94.0367,4.0,1.700029412,269.6629707,2.5,'11111222,11111222,11111222' 
TABS,ioos:station:wmo:42046:1,2011-08-03T21:00:00Z,27.8903,-94.0367,4.0,1.920026041,258.2804283,3.15,'11111222,11111222,11111222' 
TABS,ioos:station:wmo:42046:1,2011-08-03T21:30:00Z,27.8903,-94.0367,4.0,1.689644933,237.8149694,2.5,'11111222,11111222,11111222' 
TABS,ioos:station:wmo:42046:1,2011-08-03T22:00:00Z,27.8903,-94.0367,4.0,1.873953041,225.6487075,2.98,'11111222,11111222,11111222' 
TABS,ioos:station:wmo:42046:1,2011-08-03T22:30:00Z,27.8903,-94.0367,4.0,1.724093965,233.7283812,2.6,'11111222,11111222,11111222' 
TABS,ioos:station:wmo:42046:1,2011-08-03T23:00:00Z,27.8903,-94.0367,4.0,1.357239846,230.6809828,2.37,'11111222,11111222,11111222' 
TABS,ioos:station:wmo:42046:1,2011-08-03T23:30:00Z,27.8903,-94.0367,4.0,1.61644672,199.892421,2.15,'11111222,11111222,11111222' 
TABS,ioos:station:wmo:42046:1,2011-08-04T00:00:00Z,27.8903,-94.0367,4.0,1.777751389,197.0081176,2.43,'11111222,11111222,11111222' 
TABS,ioos:station:wmo:42046:1,2011-08-04T00:30:00Z,27.8903,-94.0367,4.0,1.913164917,176.7041022,2.83,'11111222,11111222,11111222' 
TABS,ioos:station:wmo:42046:1,2011-08-04T01:00:00Z,27.8903,-94.0367,4.0,1.870106949,166.7070923,2.76,'11111222,11111222,11111222' 
TABS,ioos:station:wmo:42046:1,2011-08-04T01:30:00Z,27.8903,-94.0367,4.0,2.120424486,174.3165174,2.79,'11111222,11111222,11111222' 
TABS,ioos:station:wmo:42046:1,2011-08-04T02:00:00Z,27.8903,-94.0367,4.0,2.387676695,173.0240303,3.12,'11111222,11111222,11111222' 
TABS,ioos:station:wmo:42046:1,2011-08-04T02:30:00Z,27.8903,-94.0367,4.0,2.863424523,177.1977655,3.58,'11111222,11111222,11111222' 
TABS,ioos:station:wmo:42046:1,2011-08-04T03:00:00Z,27.8903,-94.0367,4.0,3.543176541,182.4265406,4.29,'11111222,11111222,11111222' 
TABS,ioos:station:wmo:42046:1,2011-08-04T03:30:00Z,27.8903,-94.0367,4.0,3.651985761,169.4287681,4.4,'11111222,11111222,11111222' 
TABS,ioos:station:wmo:42046:1,2011-08-04T04:00:00Z,27.8903,-94.0367,4.0,4.122050461,178.1929378,5.18,'11111222,11111222,11111222' 
TABS,ioos:station:wmo:42046:1,2011-08-04T04:30:00Z,27.8903,-94.0367,4.0,4.640010776,180.1236923,5.38,'11111222,11111222,11111222' 
TABS,ioos:station:wmo:42046:1,2011-08-04T05:00:00Z,27.8903,-94.0367,4.0,4.906332643,184.6765593,5.72,'11111222,11111222,11111222' 
TABS,ioos:station:wmo:42046:1,2011-08-04T05:30:00Z,27.8903,-94.0367,4.0,5.158730464,183.3340533,6.19,'11111222,11111222,11111222' 
TABS,ioos:station:wmo:42046:1,2011-08-04T06:00:00Z,27.8903,-94.0367,4.0,5.513809935,184.0562037,6.81,'11111222,11111222,11111222' 
TABS,ioos:station:wmo:42046:1,2011-08-04T06:30:00Z,27.8903,-94.0367,4.0,6.055286946,190.1780855,6.88,'11111222,11111222,11111222' 
TABS,ioos:station:wmo:42046:1,2011-08-04T07:00:00Z,27.8903,-94.0367,4.0,5.924263667,187.7610026,7.61,'11111222,11111222,11111222' 
TABS,ioos:station:wmo:42046:1,2011-08-04T07:30:00Z,27.8903,-94.0367,4.0,6.458746008,193.8858133,7.75,'11111222,11111222,11111222' 
TABS,ioos:station:wmo:42046:1,2011-08-04T08:00:00Z,27.8903,-94.0367,4.0,6.833688609,198.5146566,8.0,'11111222,11111222,11111222' 
TABS,ioos:station:wmo:42046:1,2011-08-04T08:30:00Z,27.8903,-94.0367,4.0,6.098524412,202.3598523,7.03,'11111222,11111222,11111222' 
TABS,ioos:station:wmo:42046:1,2011-08-04T09:00:00Z,27.8903,-94.0367,4.0,6.198790205,204.2911161,7.29,'11111222,11111222,11111222' 
TABS,ioos:station:wmo:42046:1,2011-08-04T09:30:00Z,27.8903,-94.0367,4.0,6.103769327,208.5806369,7.09,'11111222,11111222,11111222' 
TABS,ioos:station:wmo:42046:1,2011-08-04T10:00:00Z,27.8903,-94.0367,4.0,6.120890458,211.3010183,6.93,'11111222,11111222,11111222' 
TABS,ioos:station:wmo:42046:1,2011-08-04T10:30:00Z,27.8903,-94.0367,4.0,5.8680576,216.6161574,7.04,'11111222,11111222,11111222' 
TABS,ioos:station:wmo:42046:1,2011-08-04T11:00:00Z,27.8903,-94.0367,4.0,5.042866248,212.7763198,5.95,'11111222,11111222,11111222' 
TABS,ioos:station:wmo:42046:1,2011-08-04T11:30:00Z,27.8903,-94.0367,4.0,4.537851915,222.2313342,5.75,'11111222,11111222,11111222' 
TABS,ioos:station:wmo:42046:1,2011-08-04T12:00:00Z,27.8903,-94.0367,4.0,4.626229566,226.5766516,5.51,'11111222,11111222,11111222' 
TABS,ioos:station:wmo:42046:1,2011-08-04T12:30:00Z,27.8903,-94.0367,4.0,4.209251715,238.0091202,4.86,'11111222,11111222,11111222' 
TABS,ioos:station:wmo:42046:1,2011-08-04T13:00:00Z,27.8903,-94.0367,4.0,3.960807998,236.9519524,4.72,'11111222,11111222,11111222' 
TABS,ioos:station:wmo:42046:1,2011-08-04T13:30:00Z,27.8903,-94.0367,4.0,3.195309062,237.0062782,3.67,'11111222,11111222,11111222' 
TABS,ioos:station:wmo:42046:1,2011-08-04T14:00:00Z,27.8903,-94.0367,4.0,2.867001918,256.6908524,3.46,'11111222,11111222,11111222' 
TABS,ioos:station:wmo:42046:1,2011-08-04T14:30:00Z,27.8903,-94.0367,4.0,2.070676218,243.9299934,2.52,'11111222,11111222,11111222' 
TABS,ioos:station:wmo:42046:1,2011-08-04T15:00:00Z,27.8903,-94.0367,4.0,2.791003404,237.7335663,3.31,'11111222,11111222,11111222' 
TABS,ioos:station:wmo:42046:1,2011-08-04T15:30:00Z,27.8903,-94.0367,4.0,2.522419473,232.0852609,3.45,'11111222,11111222,11111222' 
TABS,ioos:station:wmo:42046:1,2011-08-04T16:00:00Z,27.8903,-94.0367,4.0,1.707629936,251.5650943,2.13,'11111222,11111222,11111222' 
TABS,ioos:station:wmo:42046:1,2011-08-04T16:30:00Z,27.8903,-94.0367,4.0,1.570286598,268.905312,2.23,'11111222,11111222,11111222' 
TABS,ioos:station:wmo:42046:1,2011-08-04T17:00:00Z,27.8903,-94.0367,4.0,1.341827113,272.990338,2.24,'11111222,11111222,11111222' 
TABS,ioos:station:wmo:42046:1,2011-08-04T17:30:00Z,27.8903,-94.0367,4.0,1.095901455,295.3958525,1.99,'11111222,11111222,11111222' 
TABS,ioos:station:wmo:42046:1,2011-08-04T18:00:00Z,27.8903,-94.0367,4.0,0.500899191,273.4336223,0.99,'11111222,11111222,11111222' 
TABS,ioos:station:wmo:42046:1,2011-08-04T18:30:00Z,27.8903,-94.0367,4.0,0.577754273,23.45875877,1.22,'11111222,11111222,11111222' 